C/2017 B3 ( LINEAR )

Japanese version
Home page
Updated on January 20, 2022

---------------------------------------------------------------------

* Profile

Discovery Date January 26, 2017
Magnitude 19.2 mag
Discoverer LINEAR survey (Space Surveillance Telescope, Atom Peak, White Sands Missile Range, NM, USA)

* Pictures

* Orbital Elements

Epoch 2019 Feb. 6.0 TT = JDT 2458520.5
T 2019 Feb. 2.50419 TT                                  Rudenko
q   3.9211549            (2000.0)            P               Q
z  -0.0005373      Peri.  284.74972     +0.27591503     +0.96068828
 +/-0.0000002      Node     2.17722     -0.19811227     +0.08820088
e   1.0021069      Incl.   54.17878     -0.94054369     +0.26324632
From 1489 observations 2016 Mar. 4-2021 Aug. 20, mean residual 0".5.

* Finding Charts

* Magnitudes Graph

        m1 = 5.0 + 5 log d + 10.0 log r(t - 200)  [   ,200]  (             - 2019 Aug. 21)
        m1 = 3.5 + 5 log d + 12.5 log r(t - 200)  [200,   ]  (2019 Aug. 21 -             )

---------------------------------------------------------------------

The orbital elements are published on M.P.E.C. 2021-R75.
The charts are made with StellaNavigator Ver.10 (AstroArts).
The magnitudes graphs are made with Comet for Windows.

---------------------------------------------------------------------

Copyright(C) Seiichi Yoshida (comet@aerith.net). All rights reserved.